Location: Clairmont
(55.2667°N, 118.8000°W)
Time: 07:49:02
(UTC+00:00)

N. Korean satellite - Pass Details

Date: 27 October 2020
Orbit: 453 x 503 km, 97.2° (Epoch: 03 December)

Event Time Altitude Azimuth Distance (km) Brightness Sun altitude
Rises 13:12:08 0° 19° (NNE) 2,494 10.4 -14.5°
Reaches altitude 10° 13:14:17 10° 27° (NNE) 1,610 9.5 -14.2°
Maximum altitude 13:17:33 39° 98° (E) 698 8.0 -13.7°
Drops below altitude 10° 13:20:46 10° 169° (S) 1,590 9.4 -13.3°
Sets 13:22:53 0° 177° (S) 2,458 10.2 -13.0°
